N5TM-4 Weather Reports


time (UTC)temp
C
wind
direction
speed
KPH
gust
KPH
rain 1hr
cm
rain 24hr
cm
rain mn
cm
humidity
%
barometer
mb
20260509132656 23 157 3.2 8.0 0.00 0.00 0.00 93 1010.4
20260509132056 23 149 0.0 4.8 0.00 0.00 0.00 93 1010.8
20260509131555 23 149 1.6 8.0 0.00 0.00 0.00 93 1010.7
20260509131054 23 148 1.6 8.0 0.00 0.00 0.00 93 1010.8
20260509130554 23 148 1.6 3.2 0.00 0.00 0.00 94 1011.0
20260509130054 23 148 0.0 1.6 0.00 0.00 0.00 94 1011.3
20260509125553 23 148 0.0 3.2 0.00 0.00 0.00 94 1011.1
20260509125051 23 148 0.0 4.8 0.00 0.00 0.00 94 1010.7
20260509124551 23 148 0.0 4.8 0.00 0.00 0.00 94 1010.5
20260509124050 23 148 1.6 4.8 0.00 0.00 0.00 94 1010.6
20260509123549 23 148 0.0 3.2 0.00 0.00 0.00 94 1010.7
20260509123051 23 148 0.0 1.6 0.00 0.00 0.00 94 1010.7
20260509122549 23 148 0.0 1.6 0.00 0.00 0.00 94 1010.5
20260509122048 22 148 0.0 1.6 0.00 0.00 0.00 94 1010.5
20260509121552 22 148 0.0 1.6 0.00 0.00 0.00 94 1010.6
20260509121049 22 148 0.0 1.6 0.00 0.00 0.00 94 1010.7
20260509120549 22 148 0.0 1.6 0.00 0.00 0.00 94 1010.7
20260509120049 22 148 0.0 1.6 0.00 0.00 0.00 94 1010.6
20260509115547 22 148 0.0 1.6 0.00 0.00 0.00 94 1010.6
20260509115047 22 148 0.0 0.0 0.00 0.00 0.00 94 1010.2
20260509114547 22 148 0.0 3.2 0.00 0.00 0.00 94 1010.3
20260509114047 22 148 0.0 3.2 0.00 0.00 0.00 93 1010.5
20260509113547 22 148 0.0 1.6 0.00 0.00 0.00 93 1010.5
20260509113051 22 148 0.0 3.2 0.00 0.00 0.00 93 1010.4
20260509112548 22 148 0.0 3.2 0.00 0.00 0.00 93 1010.4
20260509112046 22 148 0.0 3.2 0.00 0.00 0.00 93 1010.5
20260509111546 22 148 1.6 3.2 0.00 0.00 0.00 93 1010.4
20260509111045 22 148 1.6 3.2 0.00 0.00 0.00 93 1010.3
20260509110548 22 148 0.0 3.2 0.00 0.00 0.00 93 1010.2
20260509110045 22 148 0.0 1.6 0.00 0.00 0.00 93 1010.1
20260509105545 22 148 0.0 1.6 0.00 0.00 0.00 93 1010.0
20260509105044 22 148 0.0 1.6 0.00 0.00 0.00 93 1009.9
20260509104544 22 148 0.0 3.2 0.00 0.00 0.00 93 1009.8
20260509104043 22 148 0.0 3.2 0.00 0.00 0.00 93 1009.8
20260509103543 22 148 0.0 4.8 0.00 0.00 0.00 93 1009.7
20260509103044 22 148 1.6 4.8 0.00 0.00 0.00 93 1009.7
20260509102543 22 148 1.6 3.2 0.00 0.00 0.00 93 1009.8
20260509102043 22 148 0.0 1.6 0.00 0.00 0.00 93 1009.9
20260509101551 22 148 0.0 3.2 0.00 0.00 0.00 93 1010.0
20260509101042 22 148 0.0 3.2 0.00 0.00 0.00 93 1009.8
20260509100542 22 148 0.0 1.6 0.00 0.00 0.00 93 1009.8
20260509100042 23 148 0.0 1.6 0.00 0.00 0.00 93 1009.8
20260509095542 23 148 0.0 1.6 0.00 0.00 0.00 93 1009.7
20260509095042 23 148 0.0 1.6 0.00 0.00 0.00 93 1009.6
20260509094543 23 148 0.0 1.6 0.00 0.00 0.00 93 1009.5
20260509094041 23 148 0.0 1.6 0.00 0.00 0.00 93 1009.5
20260509093540 23 148 0.0 1.6 0.00 0.00 0.00 93 1009.4
20260509093041 23 148 0.0 1.6 0.00 0.00 0.00 93 1009.4
20260509092540 23 148 0.0 1.6 0.00 0.00 0.00 93 1009.4
20260509092043 23 148 0.0 1.6 0.00 0.00 0.00 93 1009.5
20260509091540 23 148 0.0 1.6 0.00 0.00 0.00 93 1009.7
20260509091043 23 148 0.0 0.0 0.00 0.00 0.00 93 1009.9
20260509090539 23 148 0.0 1.6 0.00 0.00 0.00 93 1009.9
20260509090039 23 148 0.0 1.6 0.00 0.00 0.00 93 1010.0
20260509085539 23 148 0.0 3.2 0.00 0.00 0.00 93 1009.9
20260509085039 23 148 0.0 3.2 0.00 0.00 0.00 93 1009.9
20260509084539 23 148 0.0 3.2 0.00 0.00 0.00 93 1010.0
20260509084039 23 148 0.0 1.6 0.00 0.00 0.00 93 1009.9
20260509083537 23 148 0.0 1.6 0.00 0.00 0.00 93 1009.7
20260509083045 23 148 0.0 1.6 0.00 0.00 0.00 93 1009.8
20260509082537 23 148 0.0 1.6 0.00 0.00 0.00 93 1009.7
20260509082037 23 148 0.0 3.2 0.00 0.00 0.00 93 1009.8
20260509081538 23 148 0.0 3.2 0.00 0.00 0.00 93 1009.6
20260509081038 23 148 0.0 3.2 0.00 0.00 0.00 93 1009.6
20260509080537 23 148 0.0 3.2 0.00 0.00 0.00 93 1009.7
20260509080037 23 148 0.0 4.8 0.00 0.00 0.00 93 1009.7
20260509075538 23 148 0.0 4.8 0.00 0.00 0.00 93 1009.8
20260509075034 23 148 0.0 4.8 0.00 0.00 0.00 93 1009.7
20260509074531 23 148 1.6 4.8 0.00 0.00 0.00 93 1009.7
20260509074029 23 148 1.6 8.0 0.00 0.00 0.00 93 1009.6
20260509073531 23 163 4.8 11.3 0.00 0.00 0.00 93 1009.4
20260509073027 23 165 4.8 11.3 0.00 0.00 0.00 93 1009.5
20260509072527 23 146 3.2 8.0 0.00 0.00 0.00 93 1009.4
20260509072028 23 134 3.2 8.0 0.00 0.00 0.00 93 1009.7
20260509071525 23 161 4.8 8.0 0.00 0.00 0.00 93 1009.9
20260509071025 23 132 3.2 6.4 0.00 0.00 0.00 93 1009.9
20260509070526 23 129 1.6 4.8 0.00 0.00 0.00 93 1010.1
20260509070023 23 129 1.6 3.2 0.00 0.00 0.00 93 1010.1
20260509065522 23 129 0.0 3.2 0.00 0.00 0.00 92 1010.1
20260509065022 23 129 0.0 3.2 0.00 0.00 0.00 92 1010.2
20260509064520 23 129 0.0 3.2 0.00 0.00 0.00 93 1010.1
20260509064021 23 129 0.0 1.6 0.00 0.00 0.00 92 1010.2
20260509063521 23 129 0.0 3.2 0.00 0.00 0.00 93 1010.2
20260509063018 23 129 0.0 3.2 0.00 0.00 0.00 93 1010.0
20260509062517 23 129 0.0 3.2 0.00 0.00 0.00 92 1010.2
20260509062018 23 129 0.0 3.2 0.00 0.00 0.00 92 1010.3
20260509061516 23 129 0.0 4.8 0.00 0.00 0.00 92 1010.4
20260509061016 23 129 0.0 4.8 0.00 0.00 0.00 92 1010.3
20260509060516 23 129 0.0 4.8 0.00 0.00 0.00 92 1010.2
20260509060016 23 129 1.6 4.8 0.00 0.00 0.00 92 1010.2
20260509055515 23 129 1.6 6.4 0.00 0.00 0.00 92 1010.3
20260509055014 23 129 1.6 6.4 0.00 0.00 0.00 92 1010.4
20260509054513 23 124 3.2 6.4 0.00 0.00 0.00 92 1010.5
20260509054013 23 115 1.6 6.4 0.00 0.00 0.00 92 1010.4
20260509053514 23 114 0.0 4.8 0.00 0.00 0.00 92 1010.4
20260509053013 23 114 1.6 4.8 0.00 0.00 0.00 92 1010.3
20260509052514 23 96 0.0 6.4 0.00 0.00 0.00 92 1010.4
20260509052011 23 96 1.6 6.4 0.00 0.00 0.00 92 1010.4
20260509051514 22 118 1.6 6.4 0.00 0.00 0.00 92 1010.4
20260509051009 22 117 1.6 4.8 0.00 0.00 0.00 91 1010.4
20260509050508 22 117 0.0 6.4 0.00 0.00 0.00 91 1010.4
20260509050006 22 117 1.6 6.4 0.00 0.00 0.00 91 1010.5
20260509045507 22 113 0.0 6.4 0.00 0.00 0.00 91 1010.4
20260509045006 22 114 3.2 9.7 0.00 0.00 0.00 91 1010.4
20260509044505 22 116 3.2 9.7 0.00 0.00 0.00 91 1010.5
20260509044006 22 119 1.6 6.4 0.00 0.00 0.00 91 1010.6
20260509043508 22 119 1.6 6.4 0.00 0.00 0.00 91 1010.6
20260509043005 22 165 1.6 8.0 0.00 0.00 0.00 91 1010.6
20260509042505 22 165 1.6 8.0 0.00 0.00 0.00 91 1010.6
20260509042005 22 168 3.2 8.0 0.00 0.00 0.00 91 1010.5
20260509041505 22 146 3.2 6.4 0.00 0.00 0.00 91 1010.5
20260509041005 22 99 1.6 6.4 0.00 0.00 0.00 91 1010.5
20260509040504 22 151 1.6 8.0 0.00 0.00 0.00 91 1010.5
20260509040005 22 151 1.6 9.7 0.00 0.00 0.00 91 1010.4
20260509035508 22 151 3.2 9.7 0.00 0.00 0.00 91 1010.3
20260509035004 22 117 1.6 6.4 0.00 0.00 0.00 91 1010.3
20260509034517 22 117 0.0 4.8 0.00 0.00 0.00 91 1010.3
20260509034004 22 116 0.0 6.4 0.00 0.00 0.00 90 1010.1
20260509033503 22 115 1.6 6.4 0.00 0.00 0.00 90 1010.1
20260509033004 22 130 1.6 4.8 0.00 0.00 0.00 90 1010.0
20260509032505 22 130 1.6 6.4 0.00 0.00 0.00 90 1010.0
20260509032005 22 130 1.6 6.4 0.00 0.00 0.00 90 1010.0
20260509031505 22 118 0.0 4.8 0.00 0.00 0.00 90 1010.0
20260509031003 22 118 1.6 4.8 0.00 0.00 0.00 90 1010.1
20260509030503 22 118 1.6 4.8 0.00 0.00 0.00 90 1010.0
20260509030002 22 119 1.6 4.8 0.00 0.00 0.00 90 1009.8
20260509025503 22 118 1.6 4.8 0.00 0.00 0.00 90 1010.0
20260509025003 22 118 1.6 4.8 0.00 0.00 0.00 90 1010.1
20260509024502 22 123 0.0 4.8 0.00 0.00 0.00 89 1010.1
20260509024005 22 123 1.6 4.8 0.00 0.00 0.00 89 1009.9
20260509023501 22 123 0.0 6.4 0.00 0.00 0.00 89 1009.9
20260509023002 22 123 1.6 6.4 0.00 0.00 0.00 89 1009.7
20260509022502 22 127 1.6 4.8 0.00 0.00 0.00 89 1009.7
20260509022002 22 94 1.6 4.8 0.00 0.00 0.00 89 1009.7
20260509021502 22 90 0.0 4.8 0.00 0.00 0.00 89 1009.6
20260509021001 22 90 1.6 4.8 0.00 0.00 0.00 89 1009.3
20260509020500 22 90 0.0 4.8 0.00 0.00 0.00 89 1009.3
20260509020001 22 94 0.0 4.8 0.00 0.00 0.00 89 1009.3
20260509015601 22 94 0.0 4.8 0.00 0.00 0.00 89 1009.3
20260509015101 22 94 0.0 4.8 0.00 0.00 0.00 89 1009.4
20260509014600 22 94 1.6 4.8 0.00 0.00 0.00 89 1009.3
20260509014100 22 94 0.0 4.8 0.00 0.00 0.00 89 1009.3
20260509013559 22 92 0.0 11.3 0.00 0.00 0.00 89 1009.2
20260509013100 22 98 3.2 11.3 0.00 0.00 0.00 89 1009.1
20260509012559 22 125 1.6 4.8 0.00 0.00 0.00 89 1009.2
20260509012101 22 126 0.0 3.2 0.00 0.00 0.00 89 1009.2
20260509011601 22 126 0.0 9.7 0.00 0.00 0.00 88 1009.2
20260509011058 22 126 0.0 9.7 0.00 0.00 0.00 88 1009.3
20260509010558 22 111 3.2 9.7 0.00 0.00 0.00 88 1009.2
20260509010104 22 96 1.6 9.7 0.00 0.00 0.00 88 1009.2
20260509005558 22 79 3.2 9.7 0.00 0.00 0.00 88 1009.1
20260509005057 22 112 3.2 6.4 0.00 0.00 0.00 88 1009.0
20260509004621 22 121 1.6 6.4 0.00 0.00 0.00 88 1009.0
20260509004057 22 118 3.2 6.4 0.00 0.00 0.00 88 1009.0
20260509003559 22 118 1.6 6.4 0.00 0.00 0.00 88 1009.1
20260509003057 22 106 3.2 6.4 0.00 0.00 0.00 88 1009.2
20260509002556 22 109 4.8 6.4 0.00 0.00 0.00 88 1009.1
20260509002056 22 113 1.6 6.4 0.00 0.00 0.00 88 1009.1
20260509001557 22 113 3.2 6.4 0.00 0.00 0.00 88 1009.2
20260509001056 22 113 3.2 9.7 0.00 0.00 0.00 88 1009.3
20260509000555 22 86 1.6 9.7 0.00 0.00 0.00 88 1009.2
20260509000056 22 125 3.2 8.0 0.00 0.00 0.00 88 1009.2
20260508235556 22 66 3.2 11.3 0.00 0.00 0.00 88 1009.3
20260508235059 22 95 3.2 11.3 0.00 0.00 0.00 88 1009.2
20260508234604 22 100 1.6 11.3 0.00 0.00 0.00 88 1009.1
20260508234058 22 43 3.2 11.3 0.00 0.00 0.00 88 1009.2
20260508233559 22 82 3.2 9.7 0.00 0.00 0.00 88 1009.1
20260508233054 22 117 3.2 9.7 0.00 0.00 0.00 88 1009.1
20260508232556 22 84 3.2 9.7 0.00 0.00 0.00 88 1009.3
20260508232055 22 90 3.2 6.4 0.00 0.00 0.00 88 1009.4
20260508231556 22 109 3.2 6.4 0.00 0.00 0.00 88 1009.5
20260508231053 22 146 1.6 11.3 0.00 0.00 0.00 88 1009.6
20260508230553 22 109 3.2 11.3 0.00 0.00 0.00 87 1009.6
20260508230055 22 108 1.6 8.0 0.00 0.00 0.00 87 1009.6
20260508225552 22 75 1.6 9.7 0.00 0.00 0.00 88 1009.4
20260508225052 22 71 4.8 11.3 0.00 0.00 0.00 87 1009.4
20260508224553 22 132 3.2 14.5 0.00 0.00 0.00 87 1009.4
20260508224051 22 154 4.8 14.5 0.00 0.00 0.00 87 1009.3
20260508223551 22 103 0.0 9.7 0.00 0.00 0.00 87 1009.3
20260508223053 22 108 3.2 9.7 0.00 0.00 0.00 87 1009.4
20260508222550 22 38 1.6 6.4 0.00 0.00 0.00 87 1009.4
20260508222049 22 116 3.2 9.7 0.00 0.00 0.00 87 1009.4
20260508221551 22 161 1.6 11.3 0.00 0.00 0.00 87 1009.4
20260508221049 22 121 4.8 11.3 0.00 0.00 0.00 87 1009.4
20260508220548 22 83 1.6 8.0 0.00 0.00 0.00 87 1009.5
20260508220049 22 90 1.6 9.7 0.00 0.00 0.00 87 1009.5
20260508215548 22 79 1.6 9.7 0.00 0.00 0.00 87 1009.5
20260508215049 22 121 1.6 11.3 0.00 0.00 0.00 87 1009.6
20260508214601 22 131 4.8 11.3 0.00 0.00 0.00 86 1009.6
20260508214047 23 111 1.6 11.3 0.00 0.00 0.00 86 1009.6
20260508213547 23 113 1.6 8.0 0.00 0.00 0.00 87 1009.5
20260508213047 23 42 3.2 11.3 0.00 0.00 0.00 87 1009.5
20260508212546 22 115 3.2 11.3 0.00 0.00 0.00 87 1009.7
20260508212045 22 152 4.8 11.3 0.00 0.00 0.00 86 1009.9
20260508211544 23 140 3.2 8.0 0.00 0.00 0.00 86 1010.0
20260508211046 23 117 3.2 9.7 0.00 0.00 0.00 86 1010.0
20260508210543 23 53 1.6 6.4 0.00 0.00 0.00 87 1010.0
20260508210043 22 83 1.6 6.4 0.00 0.00 0.00 87 1010.0
20260508205540 22 113 1.6 4.8 0.00 0.00 0.00 87 1010.0
20260508205040 22 113 0.0 6.4 0.00 0.00 0.00 87 1010.2
20260508204538 22 117 1.6 8.0 0.00 0.00 0.00 87 1010.0
20260508204036 22 160 3.2 8.0 0.00 0.00 0.00 87 1010.1
20260508203535 22 100 3.2 12.9 0.00 0.00 0.00 87 1010.2
20260508203036 22 96 4.8 12.9 0.00 0.00 0.00 87 1010.2
20260508202536 22 105 4.8 9.7 0.00 0.00 0.00 88 1010.1
20260508202034 22 101 4.8 12.9 0.00 0.00 0.00 88 1010.1
20260508201533 22 115 4.8 12.9 0.00 0.00 0.00 89 1010.3
20260508201031 22 166 6.4 12.9 0.00 0.00 0.00 90 1010.3
20260508200530 22 99 4.8 12.9 0.00 0.00 0.00 90 1010.2
20260508200035 21 117 4.8 8.0 0.00 0.00 0.00 90 1010.4
20260508195527 21 171 1.6 6.4 0.00 0.00 0.00 90 1010.7
20260508195026 21 82 0.0 8.0 0.00 0.00 0.00 91 1010.8
20260508194525 21 96 3.2 8.0 0.00 0.00 0.00 90 1010.7
20260508194027 21 40 1.6 8.0 0.00 0.00 0.00 91 1010.6
20260508193522 21 158 3.2 8.0 0.00 0.00 0.00 90 1010.9
20260508193021 21 161 0.0 3.2 0.00 0.00 0.00 90 1011.2
20260508192521 21 161 0.0 3.2 0.00 0.00 0.00 91 1011.3
20260508192020 21 161 0.0 3.2 0.00 0.00 0.00 91 1011.3
20260508191522 21 161 0.0 8.0 0.00 0.00 0.00 91 1011.4
20260508191020 21 161 0.0 8.0 0.00 0.00 0.00 90 1011.4
20260508190520 21 161 0.0 8.0 0.00 0.00 0.00 90 1011.4
20260508190038 20 161 1.6 8.0 0.00 0.00 0.00 90 1011.3
20260508185522 21 130 1.6 11.3 0.00 0.00 0.00 90 1011.2
20260508185019 21 140 1.6 11.3 0.00 0.00 0.00 90 1011.2
20260508184529 21 111 3.2 9.7 0.00 0.00 0.00 90 1011.2
20260508184020 21 125 1.6 11.3 0.00 0.00 0.00 90 1011.3
20260508183518 21 82 1.6 11.3 0.00 0.00 0.00 90 1011.3
20260508183031 21 128 1.6 12.9 0.00 0.00 0.00 91 1011.2
20260508182519 20 133 1.6 12.9 0.00 0.00 0.00 90 1011.1
20260508182017 21 170 4.8 14.5 0.00 0.00 0.00 90 1011.3
20260508181519 20 154 0.0 9.7 0.00 0.00 0.00 90 1011.3
20260508181016 20 170 3.2 9.7 0.00 0.00 0.00 90 1011.4
20260508180515 20 149 3.2 9.7 0.00 0.00 0.00 89 1011.5
20260508180014 20 136 0.0 3.2 0.00 0.00 0.00 89 1011.7
20260508175514 20 136 0.0 8.0 0.00 0.00 0.00 89 1011.9
20260508175014 20 136 1.6 8.0 0.00 0.00 0.00 89 1011.9
20260508174511 20 109 3.2 9.7 0.00 0.00 0.00 88 1011.9
20260508174012 20 108 1.6 6.4 0.00 0.00 0.00 88 1012.0
20260508173511 20 132 3.2 6.4 0.00 0.00 0.00 87 1012.2
20260508173013 20 97 0.0 4.8 0.00 0.00 0.00 87 1012.2
20260508172511 20 113 0.0 4.8 0.00 0.00 0.00 87 1012.3
20260508172011 20 113 1.6 4.8 0.00 0.00 0.00 87 1012.2
20260508171510 20 113 1.6 9.7 0.00 0.00 0.00 87 1012.2
20260508171010 20 114 1.6 14.5 0.00 0.00 0.00 87 1012.3
20260508170510 20 121 4.8 14.5 0.00 0.00 0.00 86 1012.2
20260508170011 20 96 3.2 12.9 0.00 0.00 0.00 86 1012.3
20260508165509 20 117 3.2 9.7 0.00 0.00 0.00 86 1012.3
20260508165012 20 113 3.2 9.7 0.00 0.00 0.00 86 1012.5
20260508164519 20 84 1.6 8.0 0.00 0.00 0.00 86 1012.7
20260508164009 20 113 3.2 9.7 0.00 0.00 0.00 87 1012.9
20260508163509 20 134 3.2 14.5 0.00 0.00 0.00 87 1012.8
20260508163014 20 140 4.8 19.3 0.00 0.00 0.00 87 1012.4
20260508162508 20 82 9.7 19.3 0.00 0.00 0.00 87 1012.0
20260508162008 20 82 3.2 12.9 0.00 0.00 0.00 86 1012.5
20260508161511 20 75 4.8 14.5 0.00 0.00 0.00 85 1012.7
20260508161008 20 146 6.4 14.5 0.00 0.00 0.00 84 1012.7
20260508160510 20 58 4.8 16.1 0.00 0.00 0.00 83 1012.8
20260508160007 20 98 4.8 14.5 0.00 0.00 0.00 83 1013.0
20260508155509 20 100 3.2 12.9 0.00 0.00 0.00 83 1013.2
20260508155008 20 20 4.8 12.9 0.00 0.00 0.00 83 1013.3
20260508154509 20 36 3.2 12.9 0.00 0.00 0.00 84 1013.3
20260508154105 20 72 1.6 12.9 0.00 0.00 0.00 84 1013.3
20260508153508 20 18 3.2 9.7 0.00 0.00 0.00 84 1013.2
20260508153012 20 22 4.8 14.5 0.00 0.00 0.00 84 1013.1
20260508152607 20 331 3.2 14.5 0.00 0.00 0.00 85 1013.1
20260508152008 20 342 3.2 9.7 0.00 0.00 0.00 85 1013.1
20260508151505 20 348 1.6 12.9 0.00 0.00 0.00 85 1013.1
20260508151005 20 51 4.8 12.9 0.00 0.00 0.00 85 1013.1
20260508150505 20 355 1.6 16.1 0.00 0.00 0.00 85 1013.1
20260508150005 20 103 4.8 16.1 0.00 0.00 0.00 85 1013.2
20260508145505 20 45 1.6 14.5 0.00 0.00 0.00 86 1013.3
20260508145005 20 43 4.8 14.5 0.00 0.00 0.00 86 1013.3
20260508144507 20 327 3.2 9.7 0.00 0.00 0.00 86 1013.2
20260508144003 20 26 4.8 9.7 0.00 0.00 0.00 86 1013.2
20260508143502 20 17 3.2 9.7 0.00 0.00 0.00 86 1013.2
20260508143004 20 11 3.2 9.7 0.00 0.00 0.00 86 1013.1
20260508142502 20 346 3.2 9.7 0.00 0.00 0.00 86 1012.8
20260508142004 20 95 1.6 6.4 0.00 0.00 0.00 87 1013.0
20260508141509 20 27 3.2 6.4 0.00 0.00 0.00 86 1013.1
20260508141003 20 76 0.0 6.4 0.00 0.00 0.00 86 1013.1
20260508140503 20 5 0.0 4.8 0.00 0.00 0.00 87 1013.3
20260508140004 20 45 3.2 4.8 0.00 0.00 0.00 86 1013.2
20260508135504 20 126 1.6 4.8 0.00 0.00 0.00 86 1013.1
20260508135004 20 153 0.0 8.0 0.00 0.00 0.00 87 1013.1
20260508134504 20 153 3.2 8.0 0.00 0.00 0.00 87 1013.0
20260508134001 20 98 4.8 11.3 0.00 0.00 0.00 87 1012.9
20260508133503 20 134 3.2 12.9 0.00 0.00 0.00 86 1012.8
20260508133002 20 108 4.8 12.9 0.00 0.00 0.00 86 1012.8